Location: *
(43.9905°S, 176.4941°W)
Time: 11:27:23
(UTC+00:00)

N. Korean satellite - Visible Passes

Search period start: 23 February 2020 00:00
Search period end: 04 March 2020 00:00
Orbit: 456 x 505 km, 97.2° (Epoch: 23 February)

Date Brightness Start Highest point End Pass type
(mag) Time Alt. Az. Time Alt. Az. Time Alt. Az.
23 Feb 9.8 15:43:00 10° ENE 15:45:21 17° ESE 15:47:41 10° SSE visible
25 Feb 7.5 16:23:53 10° NNE 16:27:21 51° ESE 16:30:50 10° S visible
26 Feb 9.1 15:58:57 10° NE 16:01:55 25° ESE 16:04:53 10° SSE visible
27 Feb 10.0 15:34:47 10° E 15:36:34 13° ESE 15:38:21 10° SE visible
28 Feb 6.6 16:40:27 10° NNE 16:44:00 87° ESE 16:47:34 10° SSW visible
29 Feb 8.1 16:15:11 10° NE 16:18:30 39° ESE 16:21:50 10° S visible
01 Mar 9.5 15:50:28 10° ENE 15:53:06 20° ESE 15:55:45 10° SSE visible
02 Mar 10.3 15:26:58 10° ESE 15:27:46 11° ESE 15:28:35 10° SE visible
03 Mar 7.0 16:31:38 10° NNE 16:35:07 66° ESE 16:38:38 10° S visible
